Regional Weather Roundup
Issued by NWS Northern Indiana

Home | Current Version | Previous Version | Graphics & Text | Print | Product List | Glossary On
Versions: 1 2 3 4 5 6 7 8 9 10 11 12 13 14 15 16 17 18 19 20 21 22 23 24 25 26 27 28 29 30 31 32 33 34 35 36 37 38 39 40 41 42 43 44 45 46 47 48 49 50
000
ASUS43 KIWX 280710
RWRIWX

KIWX WEATHER ROUNDUP
NATIONAL WEATHER SERVICE NORTHERN INDIANA
300 AM EDT SUN AUG 28 2016

NOTE: "FAIR" INDICATES FEW OR NO CLOUDS BELOW 12,000 FEET WITH NO
SIGNIFICANT WEATHER AND/OR OBSTRUCTIONS TO VISIBILITY.

* THESE STATIONS ARE NOT UNDER NWS QUALITY CONTROL. THEY ALSO MAY NOT
  REPORT WEATHER SUCH AS PRECIPITATION OR FOG.

INZ001>027-280800-
NORTHERN INDIANA

CITY           SKY/WX    TMP DP  RH WIND       PRES   REMARKS
GARY*          MOCLDY    78  74  86 SW6       30.11R
VALPARAISO     PTCLDY    74  71  91 SW3       30.13R
MICHIGAN CITY* CLOUDY    72  72 100 MISG      30.12R
LAPORTE*       CLOUDY   N/A N/A N/A CALM      30.13R
KNOX*          CLOUDY    72  59  64 S6        30.12S
SOUTH BEND     CLOUDY    73  72  96 SW5       30.12S
GOSHEN         CLEAR     73  69  87 S7        30.12F
MONTICELLO*    PTCLDY    72  68  88 CALM      30.13R
LOGANSPORT*    PTCLDY    70  70 100 CALM      30.14S FOG
ROCHESTER*     CLOUDY    75  73  94 S3        30.14S
WARSAW*        PTCLDY    72  72 100 CALM      30.13F
ANGOLA*        CLEAR     70  63  78 CALM      30.14S
FORT WAYNE     PTCLDY    69  67  93 CALM      30.15R
HUNTINGTON*    PTCLDY    68  67  96 CALM      30.15R
PERU/GRISSOM   CLOUDY    71  71 100 CALM      30.13S
MARION*        CLEAR     67  67  98 CALM      30.15S

$$
INZ028>050-280800-
CENTRAL INDIANA

CITY           SKY/WX    TMP DP  RH WIND       PRES   REMARKS
LAFAYETTE      MOCLDY    71  71 100 CALM      30.12S
KOKOMO*        PTCLDY    70  70 100 S5        30.14S
MUNCIE*        CLEAR     74  71  91 SW3       30.14S
INDIANAPOLIS   PTCLDY    74  72  93 CALM      30.13S

$$
MIZ043>046-050>051-056>058-064>065-071>073-077>080-280800-
SOUTHWEST LOWER MICHIGAN

CITY           SKY/WX    TMP DP  RH WIND       PRES   REMARKS
BATTLE CREEK   CLOUDY    70  70 100 SW7       30.13S
BENTON HARBOR  CLOUDY    72  69  90 CALM      30.10S FOG
COLDWATER*     CLOUDY    70  70 100 CALM      30.13F
HILLSDALE*     CLOUDY    70  69  96 CALM      30.15R FOG
HOLLAND        CLOUDY    74  72  93 W5        30.10S
GRAND RAPIDS   CLOUDY    73  70  90 SW6       30.11R
KALAMAZOO      CLOUDY    73  70  90 S5        30.12S
STURGIS*       CLEAR     71  69  93 CALM      30.13S
THREE RIVERS*  FAIR      72  70  94 CALM      30.13S FOG

$$
OHZ001>008-015>018-024>025-280800-
NORTHWEST OHIO

CITY           SKY/WX    TMP DP  RH WIND       PRES   REMARKS
WAUSEON*       FOG       68  68 100 CALM      30.13S VSB<1/4
DEFIANCE       FOG       71  69  93 CALM      30.14R VSB 1/2
FINDLAY        CLOUDY    71  67  87 N3        30.14R
TOLEDO EXPRESS CLEAR     68  68 100 CALM      30.13S FOG
TOLEDO METCALF CLOUDY    70  70 100 S3        30.14R FOG
LIMA           CLOUDY    71  69  93 S7        30.15S

$$
AND FOR LAKE MICHIGAN COASTAL AND OPEN LAKE BUOY OBSERVATIONS

STATION/POSITION TEMP    WIND        PRES    VSBY  WAVE
                 AIR SEA DIR/SP/G                  HT/PER
                 (F)     (DEG/KT/KT) (MB)    (MI)  (FT/S)
CALUMET HARBOR    77     250/  2/  4 1018.8R
MICHIGAN CITY     76     200/  7/  8   N/A
BURNS HARBOR      77     190/  6/ 14 1019.6R
SAINT JOSEPH      76     200/  4/  7 1020.0R
SOUTH LAKE BUOY   73 75  310/ 12/ 14 1018.3R         1
4 MI NW BRIDGMAN  76 75  190/  6/  8 1019.1R         1
MICHIGAN CITY     76 76  180/  2/  4   N/A           1

$$
&&




USA.gov is the U.S. government's official web portal to all federal, state and local government web resources and services.